DLH594 EDDF-DNAA

Flight info

Callsign DLH594
Flight time 5h 36m
Altitude 37000
Route ANEKI2L ANEKI Y163 NATOR DCT TRA DCT RIPUS DCT GERSA DCT SOSON DCT ODINA DCT PIDAD DCT TALEP DCT VAREK DCT ERPIN DCT ETOIL DCT CIRTA/N0466F390 UA605 CSO UR978 AS UA604 KAN/N0468F400 UR778 KUA UV456 OXORU OXORU1N
Aircraft A346/H-SDE2E3FGHIJ3J4J5M1P2RWXYZ/LB1D1

Departure

Time 2026-05-06 11:53
Airport Frankfurt Main Airport (EDDF)

Arrival

Time 2026-05-06 17:29
Airport Nnamdi Azikiwe International Airport (DNAA)
Time Latitude Longitude Altitude Speed Heading
2026-05-06 10:50 50.04795 8.56593 374 ft 0 kts 339°
2026-05-06 10:52 50.04786 8.56598 374 ft 0 kts 339°
2026-05-06 11:35 50.04779 8.56602 377 ft 0 kts 339°
2026-05-06 11:36 50.04786 8.56598 373 ft 0 kts 339°
2026-05-06 11:38 50.04781 8.56601 377 ft 4 kts 344°
2026-05-06 11:38 50.04762 8.56611 376 ft 4 kts 344°
2026-05-06 11:38 50.04734 8.56615 378 ft 4 kts 13°
2026-05-06 11:39 50.04718 8.56603 377 ft 4 kts 44°
2026-05-06 11:39 50.04703 8.56571 373 ft 4 kts 59°
2026-05-06 11:39 50.04689 8.56540 378 ft 4 kts 40°
2026-05-06 11:39 50.04672 8.56525 377 ft 4 kts 24°
2026-05-06 11:40 50.04647 8.56510 376 ft 4 kts 21°
2026-05-06 11:40 50.04645 8.56508 380 ft 4 kts 17°
2026-05-06 11:40 50.04657 8.56504 378 ft 4 kts 332°
2026-05-06 11:40 50.04667 8.56483 379 ft 4 kts 292°
2026-05-06 11:41 50.04668 8.56450 378 ft 4 kts 262°
2026-05-06 11:41 50.04664 8.56426 376 ft 0 kts 249°
2026-05-06 11:41 50.04663 8.56423 376 ft 0 kts 249°
2026-05-06 11:44 50.04662 8.56420 376 ft 0 kts 250°
2026-05-06 11:44 50.04660 8.56409 377 ft 2 kts 250°
2026-05-06 11:44 50.04651 8.56371 377 ft 5 kts 250°
2026-05-06 11:44 50.04634 8.56303 374 ft 8 kts 250°
2026-05-06 11:45 50.04611 8.56206 378 ft 11 kts 250°
2026-05-06 11:45 50.04582 8.56081 375 ft 13 kts 250°
2026-05-06 11:45 50.04532 8.55972 375 ft 12 kts 200°
2026-05-06 11:45 50.04445 8.55921 377 ft 14 kts 198°
2026-05-06 11:46 50.04376 8.55917 374 ft 9 kts 168°
2026-05-06 11:46 50.04311 8.55947 376 ft 10 kts 162°
2026-05-06 11:46 50.04246 8.55946 376 ft 10 kts 224°
2026-05-06 11:46 50.04213 8.55832 376 ft 13 kts 249°
2026-05-06 11:47 50.04179 8.55693 375 ft 15 kts 250°
2026-05-06 11:47 50.04142 8.55535 378 ft 17 kts 249°
2026-05-06 11:47 50.04099 8.55353 376 ft 19 kts 250°
2026-05-06 11:47 50.04049 8.55148 376 ft 21 kts 249°
2026-05-06 11:48 50.04003 8.54953 376 ft 19 kts 250°
2026-05-06 11:48 50.03954 8.54747 374 ft 21 kts 249°
2026-05-06 11:48 50.03899 8.54521 376 ft 23 kts 249°
2026-05-06 11:48 50.03825 8.54294 376 ft 24 kts 234°
2026-05-06 11:49 50.03766 8.54082 375 ft 18 kts 249°
2026-05-06 11:49 50.03719 8.53883 377 ft 21 kts 250°
2026-05-06 11:49 50.03666 8.53662 375 ft 23 kts 249°
2026-05-06 11:49 50.03611 8.53441 377 ft 21 kts 249°
2026-05-06 11:50 50.03558 8.53225 376 ft 17 kts 250°
2026-05-06 11:50 50.03523 8.53073 376 ft 16 kts 250°
2026-05-06 11:50 50.03483 8.52905 377 ft 18 kts 250°
2026-05-06 11:50 50.03438 8.52734 376 ft 10 kts 247°
2026-05-06 11:51 50.03417 8.52654 378 ft 9 kts 247°
2026-05-06 11:51 50.03369 8.52596 379 ft 10 kts 184°
2026-05-06 11:51 50.03357 8.52595 379 ft 1 kts 180°
2026-05-06 11:51 50.03355 8.52595 379 ft 1 kts 180°
2026-05-06 11:52 50.03228 8.52595 376 ft 48 kts 179°
2026-05-06 11:52 50.02672 8.52600 380 ft 110 kts 179°
2026-05-06 11:52 50.01725 8.52610 378 ft 161 kts 180°
2026-05-06 11:52 50.00515 8.52632 712 ft 179 kts 181°
2026-05-06 11:53 49.99258 8.52710 1371 ft 183 kts 179°
2026-05-06 11:53 49.97971 8.52795 2043 ft 186 kts 179°
2026-05-06 11:53 49.96670 8.52892 2689 ft 190 kts 179°
2026-05-06 11:53 49.95322 8.52999 3176 ft 200 kts 179°
2026-05-06 11:54 49.93887 8.53113 3601 ft 213 kts 179°
2026-05-06 11:54 49.92364 8.53234 4027 ft 226 kts 180°
2026-05-06 11:54 49.90780 8.53350 4646 ft 230 kts 180°
2026-05-06 11:54 49.89170 8.53456 5367 ft 232 kts 180°
2026-05-06 11:55 49.87553 8.53559 6155 ft 233 kts 180°
2026-05-06 11:55 49.85929 8.53661 6874 ft 234 kts 180°
2026-05-06 11:55 49.84288 8.53763 7569 ft 238 kts 180°
2026-05-06 11:55 49.82625 8.53874 8344 ft 240 kts 180°
2026-05-06 11:56 49.80950 8.53988 9115 ft 242 kts 180°
2026-05-06 11:56 49.79256 8.54102 9850 ft 245 kts 181°
2026-05-06 11:56 49.77551 8.54080 10561 ft 246 kts 186°
2026-05-06 11:56 49.75802 8.53869 11053 ft 259 kts 187°
2026-05-06 11:57 49.73941 8.53619 11437 ft 277 kts 187°
2026-05-06 11:57 49.71960 8.53352 11826 ft 295 kts 187°
2026-05-06 11:57 49.69854 8.53070 12225 ft 313 kts 187°
2026-05-06 11:57 49.67627 8.52774 12601 ft 330 kts 186°
2026-05-06 11:58 49.65271 8.52463 12947 ft 348 kts 186°
2026-05-06 11:58 49.62828 8.52139 13281 ft 366 kts 186°
2026-05-06 11:58 49.60248 8.51801 13769 ft 377 kts 186°
2026-05-06 11:58 49.57622 8.51457 14482 ft 380 kts 186°
2026-05-06 11:59 49.54974 8.51110 15240 ft 383 kts 186°
2026-05-06 11:59 49.52305 8.50760 15952 ft 387 kts 186°
2026-05-06 11:59 49.49607 8.50406 16635 ft 391 kts 185°
2026-05-06 11:59 49.46883 8.50050 17336 ft 395 kts 185°
2026-05-06 12:00 49.44134 8.49690 18025 ft 399 kts 185°
2026-05-06 12:00 49.41353 8.49326 18626 ft 403 kts 185°
2026-05-06 12:00 49.38546 8.48961 19231 ft 406 kts 185°
2026-05-06 12:00 49.35715 8.48593 19810 ft 410 kts 185°
2026-05-06 12:01 49.32858 8.48222 20397 ft 414 kts 185°
2026-05-06 12:01 49.29976 8.47847 20977 ft 418 kts 185°
2026-05-06 12:01 49.27073 8.47470 21555 ft 421 kts 185°
2026-05-06 12:01 49.24133 8.47088 22102 ft 425 kts 185°
2026-05-06 12:02 49.21176 8.46703 22634 ft 429 kts 185°
2026-05-06 12:02 49.18195 8.46310 23246 ft 430 kts 185°
2026-05-06 12:02 49.15209 8.45923 23790 ft 431 kts 185°
2026-05-06 12:02 49.12210 8.45537 24268 ft 434 kts 185°
2026-05-06 12:03 49.09198 8.45127 24722 ft 436 kts 186°
2026-05-06 12:03 49.06176 8.44517 25182 ft 439 kts 189°
2026-05-06 12:03 49.03166 8.43662 25663 ft 441 kts 192°
2026-05-06 12:03 49.00161 8.42613 26163 ft 444 kts 193°
2026-05-06 12:04 48.97156 8.41565 26630 ft 447 kts 193°
2026-05-06 12:04 48.94110 8.40510 27079 ft 450 kts 193°
2026-05-06 12:04 48.91053 8.39451 27537 ft 452 kts 193°
2026-05-06 12:04 48.87987 8.38389 28122 ft 452 kts 193°
2026-05-06 12:05 48.84929 8.37329 28837 ft 448 kts 193°
2026-05-06 12:05 48.81899 8.36281 29577 ft 445 kts 193°
2026-05-06 12:05 48.78889 8.35241 30179 ft 443 kts 193°
2026-05-06 12:05 48.75898 8.34175 30768 ft 440 kts 194°
2026-05-06 12:06 48.72939 8.33094 31455 ft 434 kts 194°
2026-05-06 12:06 48.70016 8.32021 32131 ft 430 kts 195°
2026-05-06 12:06 48.67130 8.30962 32797 ft 426 kts 195°
2026-05-06 12:06 48.64259 8.29913 33420 ft 422 kts 195°
2026-05-06 12:07 48.61400 8.28871 33986 ft 419 kts 195°
2026-05-06 12:07 48.58570 8.27842 34409 ft 418 kts 195°
2026-05-06 12:07 48.55717 8.26975 34699 ft 420 kts 192°
2026-05-06 12:07 48.52805 8.26356 34962 ft 424 kts 189°
2026-05-06 12:08 48.49862 8.25991 35242 ft 427 kts 186°
2026-05-06 12:08 48.46878 8.25883 35475 ft 430 kts 182°
2026-05-06 12:08 48.43873 8.26040 35686 ft 435 kts 179°
2026-05-06 12:08 48.40851 8.26472 35911 ft 438 kts 176°
2026-05-06 12:09 48.37822 8.27162 36122 ft 441 kts 174°
2026-05-06 12:09 48.34787 8.27893 36379 ft 443 kts 174°
2026-05-06 12:09 48.31744 8.28619 36657 ft 443 kts 174°
2026-05-06 12:09 48.28692 8.29350 36801 ft 445 kts 174°
2026-05-06 12:10 48.22561 8.30818 36813 ft 446 kts 174°
2026-05-06 12:10 48.16425 8.32294 36817 ft 447 kts 174°
2026-05-06 12:11 48.10295 8.33783 36815 ft 446 kts 174°
2026-05-06 12:11 48.04174 8.35269 36819 ft 445 kts 174°
2026-05-06 12:12 47.98069 8.36744 36820 ft 445 kts 174°
2026-05-06 12:12 47.91954 8.38217 36821 ft 445 kts 174°
2026-05-06 12:13 47.85847 8.39685 36824 ft 444 kts 174°
2026-05-06 12:13 47.79746 8.41147 36828 ft 444 kts 174°
2026-05-06 12:14 47.73689 8.42594 36828 ft 444 kts 174°
2026-05-06 12:14 47.67585 8.43923 36807 ft 443 kts 177°
2026-05-06 12:15 47.61455 8.44818 36826 ft 443 kts 178°
2026-05-06 12:15 47.55313 8.45736 36819 ft 443 kts 178°
2026-05-06 12:16 47.49174 8.46644 36818 ft 443 kts 178°
2026-05-06 12:16 47.43024 8.47551 36826 ft 444 kts 178°
2026-05-06 12:17 47.36871 8.48448 36826 ft 444 kts 178°
2026-05-06 12:17 47.30721 8.49344 36827 ft 444 kts 178°
2026-05-06 12:18 47.25607 8.50091 36829 ft 444 kts 178°
2026-05-06 12:18 47.19466 8.50988 36834 ft 443 kts 178°
2026-05-06 12:19 47.13329 8.51879 36831 ft 443 kts 178°
2026-05-06 12:19 47.07188 8.52768 36844 ft 443 kts 178°
2026-05-06 12:20 47.01074 8.53659 36842 ft 439 kts 178°
2026-05-06 12:20 46.94981 8.54537 36855 ft 440 kts 179°
2026-05-06 12:21 46.88900 8.55410 36860 ft 440 kts 178°
2026-05-06 12:21 46.82808 8.56283 36852 ft 438 kts 178°
2026-05-06 12:22 46.76748 8.57158 36834 ft 437 kts 179°
2026-05-06 12:22 46.70688 8.58020 36856 ft 438 kts 179°
2026-05-06 12:23 46.64626 8.58881 36856 ft 438 kts 179°
2026-05-06 12:23 46.58579 8.59741 36846 ft 436 kts 179°
2026-05-06 12:24 46.52545 8.60600 36851 ft 436 kts 179°
2026-05-06 12:24 46.46511 8.61453 36851 ft 435 kts 179°
2026-05-06 12:25 46.40476 8.62307 36856 ft 436 kts 179°
2026-05-06 12:25 46.34445 8.63161 36855 ft 436 kts 179°
2026-05-06 12:26 46.28405 8.64005 36861 ft 436 kts 179°
2026-05-06 12:26 46.22372 8.64850 36832 ft 435 kts 179°
2026-05-06 12:27 46.16353 8.65694 36869 ft 434 kts 179°
2026-05-06 12:27 46.10338 8.66448 36871 ft 432 kts 181°
2026-05-06 12:28 46.04345 8.66610 36843 ft 430 kts 184°
2026-05-06 12:28 45.98337 8.66734 36852 ft 433 kts 183°
2026-05-06 12:29 45.92319 8.66858 36849 ft 433 kts 183°
2026-05-06 12:29 45.86291 8.66972 36846 ft 433 kts 183°
2026-05-06 12:30 45.80259 8.67088 36837 ft 434 kts 183°
2026-05-06 12:30 45.74236 8.67203 36827 ft 431 kts 184°
2026-05-06 12:31 45.68280 8.67312 36821 ft 431 kts 184°
2026-05-06 12:31 45.62245 8.67422 36817 ft 431 kts 184°
2026-05-06 12:32 45.56246 8.67531 36820 ft 431 kts 184°
2026-05-06 12:32 45.50254 8.67640 36821 ft 431 kts 184°
2026-05-06 12:33 45.44252 8.67750 36804 ft 431 kts 184°
2026-05-06 12:33 45.41256 8.67807 36929 ft 430 kts 184°
2026-05-06 12:33 45.38267 8.67862 36931 ft 430 kts 184°
2026-05-06 12:34 45.32327 8.67969 36932 ft 430 kts 184°
2026-05-06 12:34 45.26352 8.68077 36931 ft 430 kts 184°
2026-05-06 12:35 45.20375 8.68188 36904 ft 429 kts 184°
2026-05-06 12:35 45.14408 8.68295 36820 ft 429 kts 184°
2026-05-06 12:36 45.08443 8.68401 36819 ft 429 kts 184°
2026-05-06 12:36 45.02483 8.68509 36820 ft 428 kts 184°
2026-05-06 12:37 44.96527 8.68616 36804 ft 428 kts 184°
2026-05-06 12:37 44.90572 8.68722 36805 ft 428 kts 184°
2026-05-06 12:38 44.84615 8.68830 36783 ft 428 kts 184°
2026-05-06 12:38 44.78684 8.68938 36815 ft 426 kts 185°
2026-05-06 12:39 44.72761 8.69042 36817 ft 426 kts 185°
2026-05-06 12:39 44.66837 8.69146 36839 ft 426 kts 185°
2026-05-06 12:40 44.60918 8.69254 36847 ft 425 kts 185°
2026-05-06 12:40 44.55029 8.69357 36860 ft 425 kts 185°
2026-05-06 12:41 44.49164 8.69458 36869 ft 426 kts 185°
2026-05-06 12:41 44.43288 8.69562 36879 ft 426 kts 185°
2026-05-06 12:42 44.37428 8.69665 36870 ft 425 kts 185°
2026-05-06 12:42 44.31574 8.69768 36875 ft 425 kts 185°
2026-05-06 12:43 44.25713 8.69872 36824 ft 424 kts 185°
2026-05-06 12:43 44.19869 8.69975 36843 ft 424 kts 185°
2026-05-06 12:44 44.14039 8.70076 36844 ft 424 kts 185°
2026-05-06 12:44 44.08194 8.70177 36822 ft 424 kts 185°
2026-05-06 12:45 44.02354 8.70278 36850 ft 425 kts 185°
2026-05-06 12:46 43.93597 8.70431 36861 ft 425 kts 185°
2026-05-06 12:46 43.87762 8.70531 36845 ft 425 kts 185°
2026-05-06 12:47 43.81973 8.70630 36862 ft 427 kts 185°
2026-05-06 12:47 43.76078 8.70733 36865 ft 427 kts 185°
2026-05-06 12:48 43.70187 8.70834 36873 ft 427 kts 185°
2026-05-06 12:48 43.64305 8.70933 36871 ft 429 kts 185°
2026-05-06 12:49 43.58388 8.71035 36877 ft 429 kts 185°
2026-05-06 12:49 43.52503 8.70847 36880 ft 426 kts 190°
2026-05-06 12:50 43.46743 8.69678 36876 ft 422 kts 196°
2026-05-06 12:50 43.41179 8.67542 36893 ft 418 kts 202°
2026-05-06 12:51 43.35905 8.64518 36893 ft 416 kts 208°
2026-05-06 12:51 43.30705 8.61170 36889 ft 417 kts 208°
2026-05-06 12:52 43.25531 8.57841 36896 ft 417 kts 208°
2026-05-06 12:52 43.20421 8.54553 36898 ft 416 kts 208°
2026-05-06 12:53 43.15265 8.51237 36902 ft 416 kts 208°
2026-05-06 12:53 43.10060 8.47896 36893 ft 416 kts 208°
2026-05-06 12:54 43.04887 8.44581 36906 ft 416 kts 208°
2026-05-06 12:54 42.99720 8.41275 36913 ft 416 kts 208°
2026-05-06 12:55 42.94533 8.37963 36916 ft 416 kts 208°
2026-05-06 12:55 42.89357 8.34664 36905 ft 416 kts 208°
2026-05-06 12:56 42.84197 8.31383 36922 ft 417 kts 208°
2026-05-06 12:56 42.79028 8.28100 36917 ft 417 kts 208°
2026-05-06 12:57 42.73825 8.24802 36918 ft 417 kts 208°
2026-05-06 12:57 42.68633 8.21516 36911 ft 417 kts 208°
2026-05-06 12:58 42.63446 8.18241 36922 ft 417 kts 208°
2026-05-06 12:58 42.58223 8.14949 36926 ft 417 kts 208°
2026-05-06 12:59 42.53053 8.11696 36926 ft 417 kts 208°
2026-05-06 12:59 42.47853 8.08430 36931 ft 417 kts 208°
2026-05-06 13:00 42.42659 8.05174 36933 ft 417 kts 208°
2026-05-06 13:00 42.37428 8.01901 36935 ft 416 kts 208°
2026-05-06 13:01 42.32208 7.98644 36925 ft 417 kts 207°
2026-05-06 13:01 42.26949 7.95697 36948 ft 418 kts 206°
2026-05-06 13:02 42.21624 7.92753 36942 ft 418 kts 206°
2026-05-06 13:02 42.16347 7.89843 36941 ft 418 kts 205°
2026-05-06 13:03 42.11057 7.86936 36932 ft 418 kts 205°
2026-05-06 13:03 42.05756 7.84030 36942 ft 418 kts 205°
2026-05-06 13:04 42.00425 7.81113 36943 ft 418 kts 205°
2026-05-06 13:04 41.95098 7.78204 36944 ft 418 kts 205°
2026-05-06 13:05 41.90654 7.75781 36933 ft 418 kts 205°
2026-05-06 13:05 41.85341 7.72889 36945 ft 418 kts 205°
2026-05-06 13:06 41.80005 7.69991 36945 ft 418 kts 205°
2026-05-06 13:06 41.74717 7.67123 36949 ft 417 kts 205°
2026-05-06 13:07 41.69390 7.64239 37190 ft 417 kts 205°
2026-05-06 13:07 41.66749 7.62813 37456 ft 416 kts 205°
2026-05-06 13:07 41.64072 7.61367 37730 ft 416 kts 205°
2026-05-06 13:07 41.61394 7.59975 38004 ft 417 kts 204°
2026-05-06 13:08 41.58688 7.58757 38300 ft 418 kts 201°
2026-05-06 13:08 41.55897 7.57693 38588 ft 420 kts 199°
2026-05-06 13:08 41.53045 7.56799 38820 ft 421 kts 196°
2026-05-06 13:08 41.50191 7.56088 38939 ft 424 kts 194°
2026-05-06 13:09 41.47298 7.55425 38944 ft 424 kts 194°
2026-05-06 13:09 41.41589 7.54099 38953 ft 425 kts 194°
2026-05-06 13:10 41.35784 7.52757 38951 ft 425 kts 194°
2026-05-06 13:10 41.30076 7.51446 38937 ft 425 kts 194°
2026-05-06 13:11 41.24302 7.50124 38945 ft 425 kts 194°
2026-05-06 13:11 41.18540 7.48807 38951 ft 425 kts 194°
2026-05-06 13:12 41.12758 7.47488 38957 ft 425 kts 194°
2026-05-06 13:12 41.06993 7.46175 38945 ft 425 kts 194°
2026-05-06 13:13 41.01184 7.44855 38949 ft 425 kts 194°
2026-05-06 13:13 40.95410 7.43546 38950 ft 426 kts 194°
2026-05-06 13:14 40.89628 7.42236 38948 ft 426 kts 194°
2026-05-06 13:14 40.83805 7.40920 38945 ft 427 kts 194°
2026-05-06 13:15 40.78002 7.39611 38949 ft 427 kts 194°
2026-05-06 13:15 40.72179 7.38299 38952 ft 427 kts 194°
2026-05-06 13:16 40.66373 7.36994 38936 ft 427 kts 194°
2026-05-06 13:16 40.60532 7.35683 38945 ft 428 kts 194°
2026-05-06 13:17 40.54690 7.34375 38946 ft 428 kts 194°
2026-05-06 13:17 40.48845 7.33068 38947 ft 428 kts 194°
2026-05-06 13:18 40.43005 7.31764 38948 ft 428 kts 194°
2026-05-06 13:18 40.37178 7.30466 38949 ft 428 kts 194°
2026-05-06 13:19 40.31338 7.29166 38947 ft 428 kts 194°
2026-05-06 13:19 40.25495 7.27869 38945 ft 428 kts 194°
2026-05-06 13:20 40.19612 7.26567 38935 ft 430 kts 194°
2026-05-06 13:20 40.13734 7.25264 38940 ft 430 kts 194°
2026-05-06 13:21 40.07868 7.23968 38943 ft 430 kts 194°
2026-05-06 13:21 40.01976 7.22669 38928 ft 431 kts 194°
2026-05-06 13:22 39.96060 7.21367 38940 ft 431 kts 194°
2026-05-06 13:22 39.90139 7.20066 38942 ft 431 kts 194°
2026-05-06 13:23 39.84216 7.18766 38943 ft 431 kts 194°
2026-05-06 13:23 39.78294 7.17470 38923 ft 432 kts 194°
2026-05-06 13:24 39.72363 7.16181 38939 ft 433 kts 194°
2026-05-06 13:24 39.66387 7.15096 38943 ft 434 kts 193°
2026-05-06 13:25 39.60401 7.14049 38943 ft 434 kts 193°
2026-05-06 13:25 39.54410 7.12990 38935 ft 434 kts 193°
2026-05-06 13:26 39.48422 7.11925 38936 ft 434 kts 193°
2026-05-06 13:26 39.42432 7.10860 38942 ft 434 kts 193°
2026-05-06 13:27 39.36485 7.09802 38942 ft 434 kts 193°
2026-05-06 13:27 39.30452 7.08732 38932 ft 435 kts 193°
2026-05-06 13:28 39.24489 7.07675 38939 ft 435 kts 193°
2026-05-06 13:28 39.18493 7.06614 38944 ft 435 kts 193°
2026-05-06 13:29 39.12488 7.05553 38918 ft 435 kts 193°
2026-05-06 13:29 39.06477 7.04493 38936 ft 436 kts 193°
2026-05-06 13:30 39.00466 7.03435 38940 ft 436 kts 193°
2026-05-06 13:30 38.94450 7.02435 38936 ft 436 kts 192°
2026-05-06 13:31 38.88426 7.01464 38918 ft 437 kts 193°
2026-05-06 13:31 38.82375 7.00484 38930 ft 439 kts 193°
2026-05-06 13:32 38.76318 6.99502 38933 ft 439 kts 193°
2026-05-06 13:32 38.70267 6.98523 38934 ft 439 kts 193°
2026-05-06 13:33 38.64205 6.97546 38932 ft 439 kts 193°
2026-05-06 13:33 38.58137 6.96567 38936 ft 440 kts 193°
2026-05-06 13:34 38.52062 6.95588 38932 ft 440 kts 193°
2026-05-06 13:34 38.45991 6.94613 38936 ft 440 kts 193°
2026-05-06 13:35 38.39910 6.93643 38926 ft 441 kts 193°
2026-05-06 13:35 38.33828 6.92666 38932 ft 441 kts 193°
2026-05-06 13:36 38.27744 6.91692 38934 ft 441 kts 193°
2026-05-06 13:36 38.21657 6.90720 38934 ft 441 kts 193°
2026-05-06 13:37 38.15573 6.89751 38934 ft 441 kts 193°
2026-05-06 13:37 38.09488 6.88783 38934 ft 441 kts 193°
2026-05-06 13:38 38.03400 6.87817 38934 ft 441 kts 193°
2026-05-06 13:38 37.97352 6.86860 38915 ft 441 kts 193°
2026-05-06 13:39 37.91253 6.85897 38927 ft 442 kts 194°
2026-05-06 13:39 37.85154 6.84931 38926 ft 442 kts 194°
2026-05-06 13:40 37.79050 6.83969 38940 ft 441 kts 194°
2026-05-06 13:40 37.72957 6.83014 38917 ft 441 kts 194°
2026-05-06 13:41 37.66855 6.82054 38918 ft 442 kts 194°
2026-05-06 13:41 37.60757 6.81094 38914 ft 442 kts 194°
2026-05-06 13:42 37.54652 6.80136 38922 ft 442 kts 194°
2026-05-06 13:42 37.48552 6.79189 38907 ft 442 kts 195°
2026-05-06 13:43 37.42454 6.78235 38917 ft 441 kts 195°
2026-05-06 13:43 37.36362 6.77282 38916 ft 441 kts 195°
2026-05-06 13:44 37.30265 6.76331 38912 ft 441 kts 195°
2026-05-06 13:44 37.24166 6.75392 38898 ft 442 kts 196°
2026-05-06 13:45 37.18064 6.74442 38912 ft 442 kts 196°
2026-05-06 13:45 37.08918 6.73022 38915 ft 442 kts 196°
2026-05-06 13:46 37.02816 6.72080 38891 ft 441 kts 196°
2026-05-06 13:46 36.96736 6.71145 38906 ft 441 kts 196°
2026-05-06 13:47 36.90642 6.70203 38906 ft 441 kts 196°
2026-05-06 13:47 36.84556 6.69266 38905 ft 441 kts 196°
2026-05-06 13:48 36.78468 6.68335 38883 ft 440 kts 197°
2026-05-06 13:48 36.72409 6.67410 38898 ft 438 kts 197°
2026-05-06 13:49 36.67381 6.66635 38903 ft 438 kts 197°
2026-05-06 13:49 36.61335 6.65710 38900 ft 438 kts 197°
2026-05-06 13:50 36.55282 6.64786 38881 ft 438 kts 197°
2026-05-06 13:50 36.49235 6.63867 38916 ft 437 kts 197°
2026-05-06 13:51 36.43202 6.62947 38920 ft 436 kts 197°
2026-05-06 13:51 36.37173 6.62031 38928 ft 436 kts 197°
2026-05-06 13:52 36.31116 6.61236 38901 ft 441 kts 194°
2026-05-06 13:52 36.24937 6.61132 38923 ft 448 kts 189°
2026-05-06 13:53 36.18696 6.61523 38929 ft 449 kts 188°
2026-05-06 13:53 36.12506 6.61911 38919 ft 449 kts 188°
2026-05-06 13:54 36.06274 6.62303 38892 ft 448 kts 188°
2026-05-06 13:54 36.00058 6.62699 38894 ft 447 kts 188°
2026-05-06 13:55 35.93857 6.63087 38886 ft 446 kts 188°
2026-05-06 13:55 35.87610 6.63478 38883 ft 446 kts 188°
2026-05-06 13:56 35.81401 6.63866 38885 ft 447 kts 188°
2026-05-06 13:56 35.75242 6.64253 38876 ft 446 kts 188°
2026-05-06 13:57 35.69041 6.64641 38875 ft 446 kts 188°
2026-05-06 13:57 35.62845 6.65028 38876 ft 446 kts 188°
2026-05-06 13:58 35.56650 6.65414 38830 ft 446 kts 189°
2026-05-06 13:58 35.50491 6.65813 38865 ft 441 kts 190°
2026-05-06 13:59 35.44363 6.66187 38867 ft 441 kts 190°
2026-05-06 13:59 35.38236 6.66562 38867 ft 441 kts 190°
2026-05-06 14:00 35.32117 6.66939 38858 ft 440 kts 189°
2026-05-06 14:00 35.25977 6.67321 38845 ft 443 kts 190°
2026-05-06 14:01 35.19827 6.67700 38839 ft 442 kts 190°
2026-05-06 14:01 35.13665 6.68076 38837 ft 445 kts 190°
2026-05-06 14:02 35.07500 6.68459 38833 ft 443 kts 190°
2026-05-06 14:02 35.01318 6.68834 38796 ft 447 kts 190°
2026-05-06 14:03 34.95105 6.69214 38788 ft 447 kts 189°
2026-05-06 14:03 34.88883 6.69600 38794 ft 448 kts 190°
2026-05-06 14:04 34.82709 6.69981 38775 ft 446 kts 190°
2026-05-06 14:04 34.76506 6.70359 38768 ft 446 kts 189°
2026-05-06 14:05 34.70259 6.70749 38755 ft 446 kts 189°
2026-05-06 14:05 34.64103 6.71134 38738 ft 446 kts 189°
2026-05-06 14:06 34.57901 6.71520 38735 ft 446 kts 189°
2026-05-06 14:06 34.51707 6.71902 38710 ft 446 kts 189°
2026-05-06 14:07 34.45518 6.72285 38717 ft 446 kts 189°
2026-05-06 14:07 34.39325 6.72669 38714 ft 446 kts 189°
2026-05-06 14:08 34.33129 6.73052 38711 ft 446 kts 189°
2026-05-06 14:08 34.26935 6.73430 38695 ft 447 kts 188°
2026-05-06 14:09 34.20694 6.73809 38702 ft 450 kts 188°
2026-05-06 14:09 34.14435 6.74198 38713 ft 450 kts 188°
2026-05-06 14:10 34.08178 6.74585 38714 ft 450 kts 188°
2026-05-06 14:10 34.01921 6.74969 38687 ft 450 kts 188°
2026-05-06 14:11 33.95640 6.75350 38703 ft 452 kts 188°
2026-05-06 14:11 33.89354 6.75736 38707 ft 453 kts 188°
2026-05-06 14:12 33.83063 6.76122 38710 ft 452 kts 188°
2026-05-06 14:12 33.76773 6.76505 38680 ft 453 kts 188°
2026-05-06 14:13 33.70477 6.76888 38684 ft 453 kts 188°
2026-05-06 14:13 33.64182 6.77270 38685 ft 453 kts 188°
2026-05-06 14:14 33.57882 6.77653 38684 ft 453 kts 188°
2026-05-06 14:14 33.51581 6.78028 38688 ft 452 kts 189°
2026-05-06 14:15 33.45323 6.78132 38680 ft 450 kts 191°
2026-05-06 14:15 33.39060 6.78204 38685 ft 450 kts 191°
2026-05-06 14:16 33.32800 6.78276 38693 ft 450 kts 191°
2026-05-06 14:16 33.26542 6.78347 38697 ft 450 kts 191°
2026-05-06 14:17 33.20281 6.78419 38703 ft 450 kts 191°
2026-05-06 14:17 33.14065 6.78490 38707 ft 450 kts 191°
2026-05-06 14:18 33.07805 6.78562 38707 ft 450 kts 191°
2026-05-06 14:18 33.01546 6.78633 38704 ft 450 kts 191°
2026-05-06 14:19 32.95287 6.78704 38685 ft 451 kts 191°
2026-05-06 14:19 32.88992 6.78772 38698 ft 453 kts 191°
2026-05-06 14:20 32.82682 6.78845 38704 ft 453 kts 191°
2026-05-06 14:20 32.76378 6.78918 38702 ft 453 kts 191°
2026-05-06 14:21 32.70070 6.78990 38682 ft 453 kts 191°
2026-05-06 14:21 32.63754 6.79059 38702 ft 454 kts 191°
2026-05-06 14:22 32.57435 6.79131 38704 ft 454 kts 191°
2026-05-06 14:22 32.51113 6.79204 38706 ft 454 kts 191°
2026-05-06 14:23 32.44788 6.79275 38706 ft 454 kts 191°
2026-05-06 14:23 32.38458 6.79343 38696 ft 455 kts 190°
2026-05-06 14:24 32.32128 6.79415 38707 ft 455 kts 190°
2026-05-06 14:24 32.25797 6.79488 38710 ft 455 kts 190°
2026-05-06 14:25 32.19458 6.79559 38710 ft 455 kts 190°
2026-05-06 14:25 32.13171 6.79626 38693 ft 456 kts 190°
2026-05-06 14:26 32.06823 6.79697 38707 ft 456 kts 190°
2026-05-06 14:26 32.00478 6.79771 38709 ft 456 kts 190°
2026-05-06 14:27 31.94124 6.79843 38711 ft 456 kts 190°
2026-05-06 14:27 31.87779 6.79913 38692 ft 456 kts 190°
2026-05-06 14:28 31.81414 6.79982 38708 ft 458 kts 189°
2026-05-06 14:28 31.75035 6.80054 38718 ft 458 kts 189°
2026-05-06 14:29 31.68659 6.80125 38712 ft 458 kts 189°
2026-05-06 14:29 31.62287 6.80196 38717 ft 458 kts 189°
2026-05-06 14:30 31.55880 6.80262 38712 ft 463 kts 189°
2026-05-06 14:30 31.49437 6.80334 38721 ft 464 kts 189°
2026-05-06 14:31 31.42986 6.80409 38727 ft 463 kts 189°
2026-05-06 14:31 31.36536 6.80482 38724 ft 463 kts 189°
2026-05-06 14:32 31.30080 6.80552 38715 ft 465 kts 189°
2026-05-06 14:32 31.23603 6.80621 38715 ft 466 kts 189°
2026-05-06 14:33 31.17114 6.80693 38720 ft 466 kts 189°
2026-05-06 14:33 31.10630 6.80765 38726 ft 466 kts 189°
2026-05-06 14:34 31.04143 6.80836 38709 ft 467 kts 189°
2026-05-06 14:34 30.97647 6.80906 38717 ft 468 kts 189°
2026-05-06 14:35 30.91188 6.80977 38723 ft 468 kts 189°
2026-05-06 14:35 30.84679 6.81048 38723 ft 468 kts 189°
2026-05-06 14:36 30.78171 6.81119 38720 ft 468 kts 189°
2026-05-06 14:36 30.71645 6.81186 38715 ft 470 kts 189°
2026-05-06 14:37 30.65095 6.81257 38721 ft 471 kts 189°
2026-05-06 14:37 30.59603 6.81317 38725 ft 471 kts 189°
2026-05-06 14:38 30.53053 6.81388 38719 ft 471 kts 189°
2026-05-06 14:38 30.46502 6.81459 38718 ft 471 kts 189°
2026-05-06 14:39 30.39945 6.81530 38722 ft 471 kts 189°
2026-05-06 14:39 30.33432 6.81600 38718 ft 471 kts 189°
2026-05-06 14:40 30.26880 6.81671 38718 ft 471 kts 189°
2026-05-06 14:40 30.20326 6.81738 38700 ft 470 kts 188°
2026-05-06 14:41 30.13822 6.81806 38714 ft 466 kts 188°
2026-05-06 14:41 30.07340 6.81877 38711 ft 466 kts 188°
2026-05-06 14:42 30.00860 6.81947 38716 ft 466 kts 188°
2026-05-06 14:42 29.94374 6.82016 38716 ft 466 kts 188°
2026-05-06 14:43 29.87902 6.82082 38696 ft 464 kts 188°
2026-05-06 14:43 29.81446 6.82153 38710 ft 464 kts 188°
2026-05-06 14:44 29.74989 6.82223 38712 ft 464 kts 188°
2026-05-06 14:45 29.65311 6.82326 38710 ft 464 kts 188°
2026-05-06 14:45 29.58851 6.82392 38705 ft 464 kts 188°
2026-05-06 14:46 29.52394 6.82462 38712 ft 464 kts 188°
2026-05-06 14:46 29.45935 6.82531 38713 ft 464 kts 188°
2026-05-06 14:47 29.39483 6.82599 38711 ft 464 kts 188°
2026-05-06 14:47 29.33026 6.82667 38699 ft 464 kts 188°
2026-05-06 14:48 29.26569 6.82735 38706 ft 464 kts 188°
2026-05-06 14:48 29.20110 6.82804 38706 ft 464 kts 188°
2026-05-06 14:49 29.13651 6.82872 38707 ft 464 kts 188°
2026-05-06 14:49 29.07199 6.82938 38677 ft 464 kts 188°
2026-05-06 14:50 29.00784 6.83006 38700 ft 464 kts 188°
2026-05-06 14:50 28.94285 6.83074 38716 ft 464 kts 188°
2026-05-06 14:51 28.87875 6.83141 38721 ft 464 kts 188°
2026-05-06 14:51 28.81378 6.83209 38722 ft 464 kts 188°
2026-05-06 14:52 28.74966 6.83278 38708 ft 465 kts 188°
2026-05-06 14:52 28.68491 6.83344 38722 ft 465 kts 188°
2026-05-06 14:53 28.62021 6.83411 38726 ft 465 kts 188°
2026-05-06 14:53 28.55547 6.83478 38726 ft 466 kts 188°
2026-05-06 14:54 28.49064 6.83546 38704 ft 465 kts 188°
2026-05-06 14:54 28.42576 6.83617 38722 ft 467 kts 189°
2026-05-06 14:55 28.36079 6.83681 38724 ft 467 kts 189°
2026-05-06 14:55 28.29574 6.83748 38725 ft 467 kts 189°
2026-05-06 14:56 28.23073 6.83816 38730 ft 467 kts 189°
2026-05-06 14:56 28.16569 6.83893 38711 ft 467 kts 190°
2026-05-06 14:57 28.10035 6.84275 38732 ft 474 kts 185°
2026-05-06 14:57 28.03470 6.84992 38735 ft 474 kts 185°
2026-05-06 14:58 27.96903 6.85721 38736 ft 475 kts 185°
2026-05-06 14:58 27.90322 6.86451 38736 ft 475 kts 185°
2026-05-06 14:59 27.83757 6.87185 38732 ft 473 kts 185°
2026-05-06 14:59 27.77203 6.87906 38739 ft 473 kts 185°
2026-05-06 15:00 27.70700 6.88621 38735 ft 473 kts 185°
2026-05-06 15:00 27.64148 6.89342 38739 ft 473 kts 185°
2026-05-06 15:01 27.57591 6.90064 38741 ft 473 kts 185°
2026-05-06 15:01 27.51039 6.90783 38743 ft 473 kts 185°
2026-05-06 15:02 27.44490 6.91502 38738 ft 473 kts 185°
2026-05-06 15:02 27.37936 6.92220 38740 ft 473 kts 185°
2026-05-06 15:03 27.31382 6.92939 38736 ft 473 kts 185°
2026-05-06 15:03 27.24834 6.93660 38735 ft 472 kts 186°
2026-05-06 15:04 27.18296 6.94373 38739 ft 472 kts 186°
2026-05-06 15:04 27.11749 6.95085 38744 ft 472 kts 186°
2026-05-06 15:05 27.05201 6.95798 38749 ft 472 kts 186°
2026-05-06 15:05 26.98659 6.96511 38725 ft 473 kts 186°
2026-05-06 15:06 26.92107 6.97224 38746 ft 472 kts 186°
2026-05-06 15:06 26.85582 6.97936 38746 ft 470 kts 186°
2026-05-06 15:07 26.79043 6.98640 38750 ft 474 kts 186°
2026-05-06 15:07 26.72471 6.99351 38753 ft 474 kts 186°
2026-05-06 15:08 26.65890 7.00063 38749 ft 477 kts 186°
2026-05-06 15:08 26.59281 7.00784 38757 ft 476 kts 186°
2026-05-06 15:09 26.52704 7.01494 38758 ft 474 kts 186°
2026-05-06 15:09 26.46131 7.02199 38757 ft 475 kts 186°
2026-05-06 15:10 26.39545 7.02908 38762 ft 476 kts 186°
2026-05-06 15:10 26.32950 7.03620 38772 ft 476 kts 186°
2026-05-06 15:11 26.26361 7.04330 38777 ft 476 kts 186°
2026-05-06 15:11 26.19774 7.05038 38788 ft 476 kts 186°
2026-05-06 15:12 26.13188 7.05744 38790 ft 476 kts 186°
2026-05-06 15:12 26.06588 7.06455 38777 ft 476 kts 186°
2026-05-06 15:13 25.99978 7.07162 38802 ft 478 kts 186°
2026-05-06 15:13 25.93360 7.07883 38801 ft 478 kts 186°
2026-05-06 15:14 25.86751 7.08605 38787 ft 476 kts 186°
2026-05-06 15:14 25.80151 7.09324 38807 ft 477 kts 186°
2026-05-06 15:15 25.73589 7.10036 38814 ft 477 kts 186°
2026-05-06 15:15 25.66988 7.10753 38836 ft 477 kts 186°
2026-05-06 15:16 25.60389 7.11471 38833 ft 477 kts 186°
2026-05-06 15:16 25.53786 7.12188 38837 ft 477 kts 186°
2026-05-06 15:17 25.47184 7.12903 38846 ft 477 kts 186°
2026-05-06 15:17 25.40585 7.13616 38831 ft 477 kts 186°
2026-05-06 15:18 25.33974 7.14332 38844 ft 477 kts 186°
2026-05-06 15:18 25.27364 7.15046 38853 ft 477 kts 186°
2026-05-06 15:19 25.20755 7.15759 38849 ft 477 kts 186°
2026-05-06 15:19 25.14143 7.16471 38832 ft 478 kts 185°
2026-05-06 15:20 25.07509 7.17185 38843 ft 479 kts 185°
2026-05-06 15:20 25.00866 7.17902 38842 ft 480 kts 185°
2026-05-06 15:21 24.94224 7.18618 38840 ft 479 kts 185°
2026-05-06 15:21 24.87584 7.19331 38841 ft 480 kts 185°
2026-05-06 15:22 24.80930 7.20045 38821 ft 481 kts 185°
2026-05-06 15:22 24.74255 7.20763 38834 ft 483 kts 185°
2026-05-06 15:23 24.68701 7.21362 38838 ft 483 kts 185°
2026-05-06 15:23 24.62014 7.22080 38835 ft 483 kts 185°
2026-05-06 15:24 24.55328 7.22797 38832 ft 483 kts 185°
2026-05-06 15:24 24.48639 7.23513 38831 ft 483 kts 185°
2026-05-06 15:25 24.41955 7.24227 38841 ft 483 kts 185°
2026-05-06 15:25 24.35273 7.24941 38832 ft 483 kts 185°
2026-05-06 15:26 24.28582 7.25655 38836 ft 483 kts 185°
2026-05-06 15:26 24.21902 7.26366 38830 ft 483 kts 185°
2026-05-06 15:27 24.15210 7.27076 38830 ft 483 kts 185°
2026-05-06 15:27 24.08518 7.27788 38840 ft 483 kts 185°
2026-05-06 15:28 24.01824 7.28501 38836 ft 483 kts 185°
2026-05-06 15:28 23.95184 7.29206 38847 ft 483 kts 185°
2026-05-06 15:29 23.88494 7.29914 38822 ft 483 kts 185°
2026-05-06 15:29 23.81808 7.30621 38830 ft 483 kts 185°
2026-05-06 15:30 23.75112 7.31330 38828 ft 483 kts 185°
2026-05-06 15:30 23.68418 7.32039 38819 ft 483 kts 185°
2026-05-06 15:31 23.61726 7.32745 38820 ft 483 kts 185°
2026-05-06 15:31 23.55034 7.33449 38799 ft 483 kts 184°
2026-05-06 15:32 23.44980 7.34733 38810 ft 486 kts 182°
2026-05-06 15:32 23.38277 7.35706 38796 ft 486 kts 182°
2026-05-06 15:33 23.31570 7.36678 38789 ft 486 kts 182°
2026-05-06 15:33 23.24864 7.37646 38768 ft 486 kts 182°
2026-05-06 15:34 23.18157 7.38610 38777 ft 486 kts 182°
2026-05-06 15:34 23.11447 7.39577 38778 ft 486 kts 182°
2026-05-06 15:35 23.04740 7.40542 38772 ft 486 kts 182°
2026-05-06 15:35 22.98038 7.41505 38774 ft 486 kts 182°
2026-05-06 15:36 22.91326 7.42466 38748 ft 486 kts 181°
2026-05-06 15:36 22.84620 7.43426 38765 ft 486 kts 181°
2026-05-06 15:37 22.77918 7.44388 38763 ft 486 kts 181°
2026-05-06 15:37 22.71210 7.45348 38764 ft 486 kts 181°
2026-05-06 15:38 22.64507 7.46307 38757 ft 486 kts 181°
2026-05-06 15:38 22.57803 7.47262 38747 ft 486 kts 181°
2026-05-06 15:39 22.51140 7.48212 38754 ft 486 kts 181°
2026-05-06 15:39 22.44426 7.49170 38755 ft 487 kts 181°
2026-05-06 15:40 22.37712 7.50126 38750 ft 487 kts 181°
2026-05-06 15:40 22.30992 7.51083 38751 ft 487 kts 181°
2026-05-06 15:41 22.24280 7.52034 38739 ft 487 kts 181°
2026-05-06 15:41 22.17559 7.52988 38748 ft 487 kts 181°
2026-05-06 15:42 22.10832 7.53943 38746 ft 487 kts 181°
2026-05-06 15:42 22.04109 7.54896 38741 ft 487 kts 181°
2026-05-06 15:43 21.97386 7.55848 38744 ft 487 kts 181°
2026-05-06 15:43 21.90652 7.56798 38736 ft 488 kts 181°
2026-05-06 15:44 21.83919 7.57750 38738 ft 488 kts 181°
2026-05-06 15:44 21.77182 7.58702 38741 ft 488 kts 181°
2026-05-06 15:45 21.70441 7.59652 38734 ft 489 kts 181°
2026-05-06 15:45 21.63693 7.60602 38735 ft 489 kts 181°
2026-05-06 15:46 21.56930 7.61551 38722 ft 491 kts 180°
2026-05-06 15:46 21.50158 7.62505 38729 ft 491 kts 180°
2026-05-06 15:47 21.43381 7.63459 38734 ft 491 kts 180°
2026-05-06 15:47 21.36610 7.64409 38734 ft 491 kts 180°
2026-05-06 15:48 21.29829 7.65360 38727 ft 491 kts 180°
2026-05-06 15:48 21.23102 7.66303 38725 ft 491 kts 180°
2026-05-06 15:49 21.16334 7.67250 38730 ft 491 kts 181°
2026-05-06 15:49 21.09558 7.68198 38726 ft 491 kts 181°
2026-05-06 15:50 21.02781 7.69145 38725 ft 491 kts 180°
2026-05-06 15:50 20.96016 7.70043 38708 ft 488 kts 183°
2026-05-06 15:51 20.89242 7.70603 38719 ft 489 kts 184°
2026-05-06 15:51 20.82461 7.71146 38717 ft 489 kts 184°
2026-05-06 15:52 20.75677 7.71691 38719 ft 489 kts 184°
2026-05-06 15:52 20.68893 7.72238 38726 ft 489 kts 184°
2026-05-06 15:53 20.62112 7.72784 38705 ft 489 kts 184°
2026-05-06 15:53 20.55314 7.73328 38712 ft 490 kts 183°
2026-05-06 15:54 20.48513 7.73876 38715 ft 490 kts 183°
2026-05-06 15:54 20.41717 7.74423 38708 ft 490 kts 183°
2026-05-06 15:55 20.34914 7.74970 38715 ft 490 kts 183°
2026-05-06 15:55 20.28111 7.75514 38707 ft 490 kts 183°
2026-05-06 15:56 20.21294 7.76059 38712 ft 492 kts 183°
2026-05-06 15:56 20.14475 7.76606 38714 ft 492 kts 183°
2026-05-06 15:57 20.07651 7.77153 38715 ft 492 kts 183°
2026-05-06 15:57 20.00825 7.77698 38710 ft 492 kts 183°
2026-05-06 15:58 19.94012 7.78241 38701 ft 492 kts 183°
2026-05-06 15:58 19.87227 7.78782 38706 ft 493 kts 183°
2026-05-06 15:59 19.80341 7.79332 38707 ft 493 kts 183°
2026-05-06 15:59 19.73556 7.79873 38706 ft 492 kts 183°
2026-05-06 16:00 19.66721 7.80418 38709 ft 493 kts 183°
2026-05-06 16:00 19.59883 7.80960 38697 ft 493 kts 182°
2026-05-06 16:01 19.53045 7.81504 38704 ft 493 kts 182°
2026-05-06 16:01 19.46197 7.82056 38703 ft 493 kts 182°
2026-05-06 16:02 19.39353 7.82622 38705 ft 493 kts 182°
2026-05-06 16:02 19.32515 7.83188 38698 ft 493 kts 182°
2026-05-06 16:03 19.25668 7.83751 38690 ft 494 kts 182°
2026-05-06 16:03 19.18806 7.84316 38691 ft 495 kts 182°
2026-05-06 16:04 19.11945 7.84883 38691 ft 495 kts 182°
2026-05-06 16:04 19.05079 7.85449 38691 ft 495 kts 182°
2026-05-06 16:05 18.98218 7.86013 38688 ft 495 kts 182°
2026-05-06 16:05 18.91355 7.86574 38679 ft 495 kts 182°
2026-05-06 16:06 18.84476 7.87139 38683 ft 496 kts 182°
2026-05-06 16:06 18.77586 7.87705 38685 ft 496 kts 182°
2026-05-06 16:07 18.70713 7.88270 38686 ft 496 kts 182°
2026-05-06 16:07 18.63831 7.88833 38689 ft 496 kts 182°
2026-05-06 16:08 18.57000 7.89390 38687 ft 495 kts 182°
2026-05-06 16:08 18.50098 7.89956 38696 ft 494 kts 182°
2026-05-06 16:09 18.43241 7.90516 38696 ft 494 kts 182°
2026-05-06 16:09 18.36385 7.91075 38696 ft 494 kts 182°
2026-05-06 16:10 18.29526 7.91635 38702 ft 494 kts 182°
2026-05-06 16:10 18.22676 7.92192 38692 ft 494 kts 181°
2026-05-06 16:11 18.15825 7.92750 38698 ft 494 kts 181°
2026-05-06 16:11 18.10086 7.93218 38699 ft 493 kts 181°
2026-05-06 16:12 18.03240 7.93774 38698 ft 493 kts 181°
2026-05-06 16:12 17.96397 7.94330 38699 ft 493 kts 181°
2026-05-06 16:13 17.89551 7.94886 38697 ft 493 kts 181°
2026-05-06 16:13 17.82702 7.95441 38700 ft 493 kts 181°
2026-05-06 16:14 17.75907 7.95993 38701 ft 493 kts 181°
2026-05-06 16:14 17.69012 7.96551 38703 ft 493 kts 181°
2026-05-06 16:15 17.62215 7.97101 38708 ft 494 kts 182°
2026-05-06 16:15 17.55363 7.97655 38700 ft 494 kts 181°
2026-05-06 16:16 17.48509 7.98208 38702 ft 494 kts 181°
2026-05-06 16:16 17.41656 7.98762 38704 ft 494 kts 181°
2026-05-06 16:17 17.34798 7.99315 38702 ft 494 kts 181°
2026-05-06 16:17 17.27941 7.99868 38718 ft 494 kts 181°
2026-05-06 16:18 17.21100 8.00420 38733 ft 494 kts 181°
2026-05-06 16:18 17.14250 8.00972 38759 ft 493 kts 181°
2026-05-06 16:19 17.07412 8.01522 38787 ft 493 kts 181°
2026-05-06 16:19 17.00613 8.02070 38792 ft 493 kts 181°
2026-05-06 16:20 16.93770 8.02654 38794 ft 494 kts 181°
2026-05-06 16:20 16.86923 8.03322 38686 ft 494 kts 180°
2026-05-06 16:21 16.80083 8.03990 38693 ft 494 kts 180°
2026-05-06 16:21 16.73237 8.04654 38701 ft 494 kts 180°
2026-05-06 16:22 16.66398 8.05314 38701 ft 494 kts 180°
2026-05-06 16:22 16.59547 8.05973 38701 ft 494 kts 180°
2026-05-06 16:23 16.52709 8.06630 38694 ft 494 kts 180°
2026-05-06 16:23 16.45862 8.07288 38702 ft 494 kts 180°
2026-05-06 16:24 16.39016 8.07945 38703 ft 494 kts 180°
2026-05-06 16:24 16.32171 8.08602 38709 ft 494 kts 180°
2026-05-06 16:25 16.25375 8.09254 38709 ft 494 kts 180°
2026-05-06 16:25 16.18530 8.09909 38699 ft 494 kts 180°
2026-05-06 16:26 16.11687 8.10561 38706 ft 494 kts 180°
2026-05-06 16:26 16.04844 8.11218 38711 ft 494 kts 180°
2026-05-06 16:27 15.98006 8.11872 38706 ft 494 kts 180°
2026-05-06 16:27 15.91161 8.12526 38711 ft 494 kts 180°
2026-05-06 16:28 15.84314 8.13180 38712 ft 494 kts 180°
2026-05-06 16:28 15.77465 8.13831 38708 ft 494 kts 180°
2026-05-06 16:29 15.70615 8.14485 38711 ft 494 kts 180°
2026-05-06 16:29 15.63762 8.15139 38711 ft 494 kts 180°
2026-05-06 16:30 15.58070 8.15681 38712 ft 494 kts 180°
2026-05-06 16:30 15.50065 8.16443 38711 ft 494 kts 180°
2026-05-06 16:31 15.43216 8.17093 38704 ft 494 kts 180°
2026-05-06 16:31 15.36375 8.17744 38708 ft 493 kts 180°
2026-05-06 16:32 15.29540 8.18394 38707 ft 493 kts 180°
2026-05-06 16:32 15.22699 8.19043 38711 ft 493 kts 180°
2026-05-06 16:33 15.15859 8.19692 38706 ft 493 kts 180°
2026-05-06 16:34 15.05627 8.20661 38706 ft 491 kts 179°
2026-05-06 16:34 14.98869 8.21302 38706 ft 491 kts 179°
2026-05-06 16:35 14.92067 8.21948 38702 ft 491 kts 179°
2026-05-06 16:35 14.85264 8.22594 38703 ft 491 kts 179°
2026-05-06 16:36 14.78456 8.23240 38704 ft 491 kts 179°
2026-05-06 16:36 14.71662 8.23882 38696 ft 490 kts 179°
2026-05-06 16:37 14.64865 8.24527 38698 ft 490 kts 179°
2026-05-06 16:37 14.58076 8.25171 38700 ft 490 kts 179°
2026-05-06 16:38 14.51285 8.25814 38703 ft 490 kts 179°
2026-05-06 16:38 14.44499 8.26456 38701 ft 490 kts 179°
2026-05-06 16:39 14.37709 8.27098 38701 ft 490 kts 179°
2026-05-06 16:39 14.30925 8.27739 38698 ft 490 kts 179°
2026-05-06 16:40 14.24133 8.28381 38698 ft 490 kts 179°
2026-05-06 16:40 14.17348 8.29021 38698 ft 490 kts 179°
2026-05-06 16:41 14.10558 8.29662 38698 ft 490 kts 179°
2026-05-06 16:41 14.03768 8.30299 38694 ft 490 kts 179°
2026-05-06 16:42 13.96991 8.30939 38695 ft 490 kts 179°
2026-05-06 16:42 13.90203 8.31581 38693 ft 490 kts 179°
2026-05-06 16:43 13.83419 8.32220 38690 ft 490 kts 179°
2026-05-06 16:43 13.76634 8.32859 38692 ft 490 kts 179°
2026-05-06 16:44 13.69847 8.33493 38691 ft 489 kts 179°
2026-05-06 16:44 13.63074 8.34125 38688 ft 489 kts 179°
2026-05-06 16:45 13.56292 8.34761 38696 ft 490 kts 179°
2026-05-06 16:45 13.49552 8.35392 38691 ft 490 kts 179°
2026-05-06 16:46 13.42759 8.36028 38691 ft 490 kts 179°
2026-05-06 16:46 13.35973 8.36663 38691 ft 490 kts 179°
2026-05-06 16:47 13.29180 8.37294 38691 ft 490 kts 178°
2026-05-06 16:47 13.22396 8.37931 38691 ft 490 kts 178°
2026-05-06 16:48 13.15606 8.38567 38694 ft 490 kts 178°
2026-05-06 16:48 13.08818 8.39201 38693 ft 490 kts 178°
2026-05-06 16:49 13.02032 8.39863 38692 ft 490 kts 178°
2026-05-06 16:49 12.95253 8.40538 38690 ft 489 kts 177°
2026-05-06 16:50 12.88476 8.41216 38695 ft 489 kts 177°
2026-05-06 16:50 12.81710 8.41890 38690 ft 489 kts 177°
2026-05-06 16:51 12.74936 8.42561 38703 ft 489 kts 178°
2026-05-06 16:51 12.68173 8.43228 38698 ft 489 kts 177°
2026-05-06 16:52 12.61398 8.43898 38699 ft 488 kts 177°
2026-05-06 16:52 12.54653 8.44565 38692 ft 486 kts 178°
2026-05-06 16:53 12.47921 8.45229 38688 ft 486 kts 178°
2026-05-06 16:53 12.41180 8.45895 38690 ft 486 kts 178°
2026-05-06 16:54 12.34444 8.46559 38691 ft 486 kts 178°
2026-05-06 16:54 12.27705 8.47225 38691 ft 486 kts 178°
2026-05-06 16:55 12.20978 8.47889 38691 ft 485 kts 178°
2026-05-06 16:55 12.14250 8.48552 38697 ft 485 kts 178°
2026-05-06 16:56 12.07559 8.48425 38687 ft 479 kts 192°
2026-05-06 16:56 12.01170 8.46731 38692 ft 472 kts 205°
2026-05-06 16:57 11.95414 8.43633 38689 ft 465 kts 218°
2026-05-06 16:57 11.90140 8.39789 38695 ft 466 kts 219°
2026-05-06 16:58 11.84889 8.35909 38696 ft 466 kts 219°
2026-05-06 16:58 11.79625 8.32042 38702 ft 465 kts 219°
2026-05-06 16:59 11.75254 8.28842 38700 ft 465 kts 219°
2026-05-06 16:59 11.69995 8.24997 38704 ft 465 kts 219°
2026-05-06 17:00 11.64740 8.21157 38696 ft 465 kts 219°
2026-05-06 17:00 11.59480 8.17317 38713 ft 465 kts 219°
2026-05-06 17:01 11.54216 8.13474 38713 ft 466 kts 218°
2026-05-06 17:01 11.48930 8.09616 38718 ft 468 kts 218°
2026-05-06 17:02 11.43631 8.05754 38720 ft 468 kts 218°
2026-05-06 17:02 11.38370 8.01921 38451 ft 467 kts 218°
2026-05-06 17:02 11.35697 7.99975 38198 ft 466 kts 218°
2026-05-06 17:03 11.33066 7.98059 37938 ft 464 kts 218°
2026-05-06 17:03 11.30481 7.96175 37678 ft 462 kts 218°
2026-05-06 17:03 11.27864 7.94268 37408 ft 463 kts 218°
2026-05-06 17:03 11.25236 7.92355 37144 ft 464 kts 218°
2026-05-06 17:04 11.22604 7.90440 36891 ft 465 kts 218°
2026-05-06 17:04 11.19969 7.88522 36664 ft 466 kts 218°
2026-05-06 17:04 11.17331 7.86605 36401 ft 465 kts 218°
2026-05-06 17:04 11.14696 7.84689 36127 ft 466 kts 218°
2026-05-06 17:05 11.12058 7.82771 35788 ft 467 kts 218°
2026-05-06 17:05 11.09410 7.80845 35299 ft 468 kts 218°
2026-05-06 17:05 11.06760 7.78919 34724 ft 469 kts 218°
2026-05-06 17:05 11.04097 7.76984 34121 ft 471 kts 218°
2026-05-06 17:06 11.01422 7.75040 33424 ft 474 kts 217°
2026-05-06 17:06 10.98729 7.73083 32725 ft 476 kts 217°
2026-05-06 17:06 10.96026 7.71119 32043 ft 478 kts 217°
2026-05-06 17:06 10.93309 7.69146 31368 ft 480 kts 217°
2026-05-06 17:07 10.90582 7.67167 30710 ft 482 kts 216°
2026-05-06 17:07 10.87843 7.65179 30033 ft 485 kts 216°
2026-05-06 17:07 10.85086 7.63180 29260 ft 487 kts 216°
2026-05-06 17:07 10.82321 7.61176 28523 ft 488 kts 216°
2026-05-06 17:08 10.79550 7.59168 27835 ft 488 kts 216°
2026-05-06 17:08 10.76785 7.57165 27135 ft 488 kts 215°
2026-05-06 17:08 10.74018 7.55160 26554 ft 486 kts 215°
2026-05-06 17:08 10.71278 7.53176 26063 ft 481 kts 215°
2026-05-06 17:09 10.68563 7.51210 25597 ft 477 kts 214°
2026-05-06 17:09 10.65873 7.49263 25152 ft 472 kts 215°
2026-05-06 17:09 10.63212 7.47340 24721 ft 466 kts 213°
2026-05-06 17:09 10.60406 7.45730 24307 ft 460 kts 203°
2026-05-06 17:10 10.57410 7.44659 23884 ft 454 kts 193°
2026-05-06 17:10 10.54322 7.44115 23480 ft 448 kts 185°
2026-05-06 17:10 10.51240 7.43781 23012 ft 444 kts 184°
2026-05-06 17:10 10.48185 7.43481 22534 ft 440 kts 184°
2026-05-06 17:11 10.45150 7.43182 22040 ft 436 kts 184°
2026-05-06 17:11 10.42180 7.42884 21570 ft 434 kts 184°
2026-05-06 17:11 10.39184 7.42578 21082 ft 431 kts 184°
2026-05-06 17:11 10.36208 7.42270 20601 ft 429 kts 184°
2026-05-06 17:12 10.33251 7.41963 20124 ft 427 kts 184°
2026-05-06 17:12 10.30302 7.41654 19651 ft 425 kts 184°
2026-05-06 17:12 10.27372 7.41348 19167 ft 423 kts 184°
2026-05-06 17:12 10.24451 7.41042 18689 ft 421 kts 184°
2026-05-06 17:13 10.21540 7.40737 18218 ft 420 kts 184°
2026-05-06 17:13 10.18640 7.40433 17686 ft 418 kts 184°
2026-05-06 17:13 10.15750 7.40130 17162 ft 416 kts 184°
2026-05-06 17:13 10.12886 7.39829 16692 ft 413 kts 184°
2026-05-06 17:14 10.10029 7.39529 16214 ft 411 kts 184°
2026-05-06 17:14 10.07198 7.39232 15742 ft 409 kts 184°
2026-05-06 17:14 10.04375 7.38938 15274 ft 407 kts 184°
2026-05-06 17:14 10.01561 7.38645 14794 ft 405 kts 184°
2026-05-06 17:15 9.98761 7.38353 14317 ft 404 kts 184°
2026-05-06 17:15 9.95967 7.38061 13834 ft 403 kts 184°
2026-05-06 17:15 9.93184 7.37770 13330 ft 402 kts 184°
2026-05-06 17:15 9.90407 7.37479 12822 ft 399 kts 183°
2026-05-06 17:16 9.87654 7.37305 12351 ft 394 kts 177°
2026-05-06 17:16 9.84935 7.37446 11888 ft 388 kts 170°
2026-05-06 17:16 9.82285 7.37873 11431 ft 384 kts 166°
2026-05-06 17:16 9.79674 7.38397 10988 ft 380 kts 165°
2026-05-06 17:17 9.77101 7.38929 10677 ft 372 kts 165°
2026-05-06 17:17 9.74606 7.39440 10550 ft 359 kts 165°
2026-05-06 17:17 9.72195 7.39931 10368 ft 348 kts 165°
2026-05-06 17:17 9.69867 7.40400 10264 ft 335 kts 164°
2026-05-06 17:18 9.67625 7.40849 10162 ft 322 kts 164°
2026-05-06 17:18 9.65467 7.41281 10060 ft 310 kts 164°
2026-05-06 17:18 9.63387 7.41697 9957 ft 299 kts 164°
2026-05-06 17:18 9.61358 7.42104 9679 ft 296 kts 163°
2026-05-06 17:19 9.59357 7.42508 9419 ft 291 kts 164°
2026-05-06 17:19 9.57386 7.42905 9163 ft 286 kts 164°
2026-05-06 17:19 9.55479 7.43287 8923 ft 281 kts 164°
2026-05-06 17:19 9.53573 7.43667 8670 ft 277 kts 164°
2026-05-06 17:20 9.51700 7.44043 8419 ft 273 kts 165°
2026-05-06 17:20 9.49836 7.44416 8181 ft 272 kts 165°
2026-05-06 17:20 9.47969 7.44725 7944 ft 273 kts 171°
2026-05-06 17:20 9.46058 7.44768 7660 ft 276 kts 180°
2026-05-06 17:21 9.44155 7.44602 7380 ft 274 kts 182°
2026-05-06 17:21 9.42260 7.44399 7097 ft 272 kts 184°
2026-05-06 17:21 9.40387 7.44194 6811 ft 270 kts 184°
2026-05-06 17:21 9.38526 7.43994 6560 ft 267 kts 184°
2026-05-06 17:22 9.36687 7.43799 6333 ft 264 kts 184°
2026-05-06 17:22 9.34874 7.43608 6096 ft 261 kts 184°
2026-05-06 17:22 9.33075 7.43420 5849 ft 259 kts 184°
2026-05-06 17:22 9.31287 7.43231 5607 ft 257 kts 184°
2026-05-06 17:23 9.29516 7.43047 5371 ft 255 kts 184°
2026-05-06 17:23 9.27755 7.42863 5123 ft 252 kts 185°
2026-05-06 17:23 9.26015 7.42685 4949 ft 250 kts 185°
2026-05-06 17:23 9.24320 7.42408 4922 ft 242 kts 193°
2026-05-06 17:24 9.22765 7.41869 4837 ft 232 kts 205°
2026-05-06 17:24 9.21401 7.41079 4690 ft 226 kts 213°
2026-05-06 17:24 9.20112 7.40172 4545 ft 219 kts 215°
2026-05-06 17:24 9.18890 7.39278 4398 ft 215 kts 214°
2026-05-06 17:25 9.17691 7.38408 4259 ft 215 kts 214°
2026-05-06 17:25 9.16479 7.37539 4083 ft 212 kts 214°
2026-05-06 17:25 9.15287 7.36691 3915 ft 206 kts 214°
2026-05-06 17:25 9.14139 7.35875 3783 ft 197 kts 214°
2026-05-06 17:26 9.13031 7.35089 3618 ft 192 kts 214°
2026-05-06 17:26 9.11937 7.34313 3389 ft 192 kts 214°
2026-05-06 17:26 9.10850 7.33543 3130 ft 188 kts 213°
2026-05-06 17:26 9.09807 7.32802 2872 ft 178 kts 214°
2026-05-06 17:27 9.08835 7.32110 2644 ft 164 kts 213°
2026-05-06 17:27 9.07929 7.31470 2403 ft 156 kts 214°
2026-05-06 17:27 9.07042 7.30847 2252 ft 155 kts 214°
2026-05-06 17:27 9.06164 7.30214 2100 ft 154 kts 214°
2026-05-06 17:28 9.05286 7.29586 1967 ft 155 kts 214°
2026-05-06 17:28 9.04406 7.28957 1771 ft 155 kts 214°
2026-05-06 17:28 9.03524 7.28328 1559 ft 156 kts 214°
2026-05-06 17:28 9.02636 7.27703 1334 ft 155 kts 215°
2026-05-06 17:29 9.01759 7.27082 1147 ft 150 kts 214°
2026-05-06 17:29 9.01013 7.26550 1118 ft 106 kts 215°
2026-05-06 17:29 9.00565 7.26230 1116 ft 57 kts 214°
2026-05-06 17:29 9.00324 7.26065 1115 ft 27 kts 212°
2026-05-06 17:30 9.00209 7.26023 1118 ft 16 kts 183°
2026-05-06 17:30 9.00105 7.26048 1108 ft 16 kts 131°
2026-05-06 17:30 9.00142 7.26141 1112 ft 17 kts 38°
2026-05-06 17:30 9.00246 7.26217 1113 ft 19 kts 34°
2026-05-06 17:31 9.00360 7.26295 1113 ft 21 kts 34°
2026-05-06 17:31 9.00460 7.26366 1115 ft 18 kts 34°
2026-05-06 17:31 9.00563 7.26439 1115 ft 11 kts 35°
2026-05-06 17:31 9.00589 7.26465 1113 ft 5 kts 57°
2026-05-06 17:32 9.00597 7.26496 1116 ft 4 kts 94°
2026-05-06 17:32 9.00593 7.26514 1119 ft 1 kts 107°
2026-05-06 17:32 9.00590 7.26522 1120 ft 2 kts 112°
2026-05-06 17:32 9.00562 7.26565 1123 ft 12 kts 132°
2026-05-06 17:33 9.00487 7.26622 1136 ft 14 kts 149°
2026-05-06 17:33 9.00449 7.26692 1136 ft 12 kts 75°
2026-05-06 17:33 9.00478 7.26776 1137 ft 6 kts 70°
2026-05-06 17:33 9.00502 7.26822 1139 ft 7 kts 37°
2026-05-06 17:34 9.00547 7.26830 1140 ft 0 kts
2026-05-06 17:34 9.00554 7.26830 1140 ft 2 kts
2026-05-06 17:34 9.00566 7.26831 1140 ft 0 kts
2026-05-06 17:34 9.00568 7.26831 1137 ft 0 kts